TimeCDT,TemperatureF,Dew PointF,Humidity,Sea Level PressureIn,VisibilityMPH,Wind Direction,Wind SpeedMPH,Gust SpeedMPH,PrecipitationIn,Events,Conditions,WindDirDegrees,DateUTC
12:53 AM,69.1,62.1,78,30.03,10.0,Calm,Calm,-,N/A,,Clear,0,2013-07-03 05:53:00
1:53 AM,66.9,63.0,87,30.02,10.0,Calm,Calm,-,N/A,,Clear,0,2013-07-03 06:53:00
2:53 AM,66.0,63.0,90,30.02,10.0,Calm,Calm,-,N/A,,Clear,0,2013-07-03 07:53:00
3:53 AM,68.0,64.0,87,30.02,10.0,Calm,Calm,-,N/A,,Clear,0,2013-07-03 08:53:00
4:53 AM,64.0,63.0,96,30.02,6.0,Calm,Calm,-,N/A,,Clear,0,2013-07-03 09:53:00
5:53 AM,66.0,64.0,93,30.03,6.0,North,3.5,-,N/A,,Clear,360,2013-07-03 10:53:00
6:18 AM,64.4,62.6,94,30.03,2.0,Calm,Calm,-,N/A,,Clear,0,2013-07-03 11:18:00
6:53 AM,64.0,63.0,96,30.04,3.0,Calm,Calm,-,N/A,,Clear,0,2013-07-03 11:53:00
7:53 AM,71.1,66.0,84,30.05,8.0,Calm,Calm,-,N/A,,Clear,0,2013-07-03 12:53:00
8:53 AM,75.0,64.9,71,30.07,9.0,NNE,5.8,-,N/A,,Clear,20,2013-07-03 13:53:00
9:53 AM,77.0,64.0,64,30.08,10.0,NE,6.9,-,N/A,,Clear,50,2013-07-03 14:53:00
10:53 AM,81.0,62.1,52,30.07,10.0,ENE,4.6,-,N/A,,Clear,70,2013-07-03 15:53:00
11:53 AM,84.0,60.1,44,30.06,10.0,East,5.8,-,N/A,,Clear,80,2013-07-03 16:53:00
12:53 PM,86.0,60.1,41,30.05,10.0,East,9.2,-,N/A,,Clear,90,2013-07-03 17:53:00
1:53 PM,87.1,57.0,36,30.02,10.0,East,4.6,-,N/A,,Clear,80,2013-07-03 18:53:00
2:53 PM,88.0,59.0,37,30.01,10.0,ENE,8.1,-,N/A,,Partly Cloudy,70,2013-07-03 19:53:00
3:53 PM,87.1,57.9,37,29.99,10.0,NE,8.1,-,N/A,,Clear,50,2013-07-03 20:53:00
4:53 PM,86.0,57.0,37,29.98,10.0,ESE,5.8,-,N/A,,Partly Cloudy,120,2013-07-03 21:53:00
5:53 PM,86.0,59.0,40,29.96,10.0,East,6.9,-,N/A,,Clear,90,2013-07-03 22:53:00
6:53 PM,84.0,57.9,41,29.96,10.0,East,8.1,-,N/A,,Clear,100,2013-07-03 23:53:00
7:53 PM,82.0,57.9,44,29.97,10.0,East,4.6,-,N/A,,Clear,80,2013-07-04 00:53:00
8:53 PM,78.1,60.1,54,29.98,10.0,East,3.5,-,N/A,,Clear,80,2013-07-04 01:53:00
9:53 PM,75.0,60.1,60,29.99,10.0,Calm,Calm,-,N/A,,Clear,0,2013-07-04 02:53:00
10:53 PM,75.0,61.0,62,30.01,10.0,East,3.5,-,N/A,,Clear,80,2013-07-04 03:53:00
11:53 PM,73.0,61.0,66,30.00,10.0,East,3.5,-,N/A,,Clear,90,2013-07-04 04:53:00